Regional Weather Roundup
Issued by NWS Little Rock, AR

Home | Current Version | Previous Version | Graphics & Text | Print | Product List | Glossary On
Versions: 1 2 3 4 5 6 7 8 9 10 11 12 13 14 15 16 17 18 19 20 21 22 23 24 25 26 27 28 29 30 31 32 33 34 35 36 37 38 39 40 41 42 43 44 45 46 47 48 49 50
521
ASUS44 KLZK 052105
RWRLZK

WEATHER ROUNDUP FOR ARKANSAS
NATIONAL WEATHER SERVICE LITTLE ROCK AR
300 PM CST MON DEC 05 2016

NOTE: "FAIR" INDICATES FEW OR NO CLOUDS BELOW 12,000 FEET WITH NO
SIGNIFICANT WEATHER AND/OR OBSTRUCTIONS TO VISIBILITY.

ARZ001-003-010-029-052200-
NORTHWEST ARKANSAS

CITY           SKY/WX    TMP DP  RH WIND       PRES   REMARKS
FAYETTEVILLE   PTSUNNY   51  37  58 CALM      29.76F
FORT SMITH     CLOUDY    49  40  71 E12       29.78F
HARRISON       CLOUDY    44  37  76 E9        29.80F
BENTONVILLE    CLOUDY    50  34  53 E6        29.78F
ROGERS         PTSUNNY   48  37  65 E3        29.77F
SILOAM SPGS    MOSUNNY   48  37  66 CALM      29.76F
HIGHFILL       CLOUDY    50  35  56 SE8       29.76F
SPRINGDALE     PTSUNNY   50  36  57 SE7       29.78F
$$

ARZ004-005-016-052200-
NORTH CENTRAL ARKANSAS

CITY           SKY/WX    TMP DP  RH WIND       PRES   REMARKS
BATESVILLE     CLOUDY    43  37  81 E6        29.89R
FLIPPIN        CLOUDY    45  36  70 SE5       29.81F
MTN HOME       CLOUDY    44  36  73 S8        29.83F
$$

ARZ040-041-052200-
WEST CENTRAL ARKANSAS

CITY           SKY/WX    TMP DP  RH WIND       PRES   REMARKS
MENA           CLOUDY    50  45  81 E8        29.75F
MOUNT IDA      CLOUDY    49  41  74 VRB3      29.76F
$$

ARZ009-017-025-026-028-052200-
NORTHEAST ARKANSAS

CITY           SKY/WX    TMP DP  RH WIND       PRES   REMARKS
CORNING        CLOUDY    43  39  87 E13       29.89F
JONESBORO      CLOUDY    44  39  82 E13       29.88F
NEWPORT        CLOUDY    44  40  85 E12       29.88F
WALNUT RIDGE   CLOUDY    43  37  81 NE12      29.88F
BLYTHEVILLE    CLOUDY    46  40  79 E7        29.90F
NW BLYTHEVILLE CLOUDY    45  39  81 E12G20    29.90F
$$

ARZ022-023-033-042-044-052200-
CENTRAL ARKANSAS

CITY           SKY/WX    TMP DP  RH WIND       PRES   REMARKS
LITTLE ROCK    CLOUDY    45  43  93 NE8       29.85S
N LITTLE ROCK    N/A     44  42  89 E6        29.87S
JACKSONVILLE   CLOUDY    45  42  89 NE7       29.84S
SEARCY         CLOUDY    45  42  89 E7        29.88R
HOT SPRINGS    CLOUDY    49  41  74 E7        29.79F
RUSSELLVILLE   CLOUDY    48  40  73 VRB7      29.81F
CLINTON        PTSUNNY   48  41  76 SE6G14    29.84F
$$

ARZ036-052200-
EAST ARKANSAS

CITY           SKY/WX    TMP DP  RH WIND       PRES   REMARKS
WEST MEMPHIS   CLOUDY    46  41  82 E7        29.84F
$$

ARZ050-053-066-070-073-052200-
SOUTHWEST ARKANSAS

CITY           SKY/WX    TMP DP  RH WIND       PRES   REMARKS
ARKADELPHIA    CLOUDY    47  43  86 NE8       29.81F
CAMDEN         CLOUDY    46  45  93 E7        29.80F FOG
TEXARKANA      CLOUDY    49  44  83 E9        29.76F
EL DORADO      CLOUDY    46  46 100 NE9       29.79F FOG
DE QUEEN       CLOUDY    51  43  74 E7        29.74F
$$

ARZ056-057-069-052200-
SOUTHEAST ARKANSAS

CITY           SKY/WX    TMP DP  RH WIND       PRES   REMARKS
PINE BLUFF     CLOUDY    46  43  89 NE7       29.83F
STUTTGART      CLOUDY    45  39  81 NE10      29.84F
MONTICELLO     CLOUDY    47  45  93 NE10      29.80F FOG

$$






USA.gov is the U.S. government's official web portal to all federal, state and local government web resources and services.